www.pogodaiklimat.ru

Погода и климат >> Архив погоды >> Мексика >> Tulancingo


ПОГОДА в Tulancingo

  • Прогноз погоды в Tulancingo
  • Монитор погоды в Tulancingo
  • Климат города

АРХИВ ПОГОДЫ в Tulancingo

Время (UTC), дата Ветер
(напр.,м/с)
 
Видим.   Явления Облачность Т
(С)
Тd
(С)
f
(%)
Тe
(С)
Тes
(С)
Комфортность P
(гПа)
Po
(гПа)
Тmin
(С)
Tmax
(С)
R
(мм)
R24
(мм)
S
(см)
18 11.10 штиль 0 20 км 9/9 600 м
[Sc diur, vesp]
+20.2 +14.5 70 +22 +25 комфорт 1015.8 786.7 +11.5 +20.8
21 11.10 ЮВ 2 18 км мгла 5/4 600 м
[Cu med, cong As trans]
+23.8 +14.7 57 +27 +32 жарко 1010.5 784.3
00 12.10 СВ 2 5000 м туман 9/6 300 м
[Cb calv Ac trans Ci fib]
+19.0 +14.7 76 +21 +21 комфорт 1009.5 784.7 +11.5 +24.5
03 12.10 В 1 15 км слабая морось {туман} 10/10 600 м
[St]
+16.4 +13.8 85 +17 +17 1011.4 786.5 0.0
06 12.10 В 1 10 км {туман} 10/8 300 м
[St As op]
+15.4 +13.8 90 +16 +16 1012.1 786.5 3
09 12.10 В 1 5000 м дымка {туман} 6/6 450 м
[Sc diur, vesp]
+15.0 +13.8 93 +15 +15 1012.7 785.6
12 12.10 В 1 5000 м дымка {туман} 6/6 300 м
[St]
+13.8 +13.4 97 +14 +14 1014.2 785.8 +12.5 +24.5
15 12.10 штиль 0 10 км дымка 6/3 600 м
[Sc Ci]
+16.2 +13.9 86 +16 +21 1016.2 786.8
18 12.10 СВ 2 20 км 6/3 600 м
[Cu hum Ci]
+22.8 +15.5 63 +27 +37 душно 1013.4 785.7 +12.5 +23.5
21 12.10 СВ 3 20 км мгла 9/4 600 м
[Cu med, cong Ci]
+24.3 +16.3 61 +28 +32 душно 1008.4 783.4
00 13.10 СВ 2 18 км мгла 9/5 300 м
[St Ci]
+19.2 +14.6 75 +21 +21 комфорт 1007.9 784.2 +12.5 +25.8
03 13.10 В 1 18 км мгла 3/0 2000 м
[Ac trans]
+16.0 +14.3 90 +17 +17 1009.3 785.6
06 13.10 СВ 1 18 км мгла 1/0 2000 м
[Ac trans]
+14.6 +13.1 91 +15 +15 1010.3 785.4 +12.5 +25.8
09 13.10 СВ 1 18 км мгла ясно +13.0 +11.8 92 +13 +13 1011.2 784.3
12 13.10 В 1 18 км мгла ясно +12.4 +11.2 92 +12 +12 1013.2 784.4 +10.8 +25.8
15 13.10 ЮЗ 1 20 км 3/1 800 м
[Cu hum Ci]
+18.2 +13.5 74 +20 +25 1014.7 785.2
18 13.10 штиль 0 20 км 4/4 800 м
[Cu med, cong]
+24.0 +15.6 59 +27 +40 жарко 1011.8 784.3 +10.8 +25.0
21 13.10 В 3 20 км мгла 8/3 800 м
[Cu med, cong Ac cuf]
+22.2 +15.4 65 +26 +29 душно 1006.8 782.1
00 14.10 В 2 20 км мгла {дождь} 9/3 600 м
[Sc diur, vesp Ac As Ci]
+17.8 +15.8 88 +18 +18 1006.5 782.9 9
03 14.10 В 2 18 км мгла ясно +15.6 +14.4 93 +15 +15 1007.7 784.0
06 14.10 В 2 18 км мгла 3/0
[Ac trans]
+16.0 +14.0 88 +16 +16 1008.8 783.7 +10.8 +26.2
12 14.10 В 2 18 км мгла ясно +15.0 +12.9 87 +15 +15 1011.4 783.7 +13.5 +26.2
15 14.10 В 2 20 км мгла 5/1 800 м
[Cu med, cong Ac lent Ci]
+19.4 +15.7 79 +22 +25 комфорт 1012.6 784.7
18 14.10 ЮЗ 2 20 км мгла 5/3 600 м
[Cu med, cong Ac cast Ci]
+24.4 +16.4 61 +28 +38 душно 1010.0 784.1 +13.5 +26.2
21 14.10 СВ 1 20 км в посл. час гроза {дождь} 9/6 600 м
[St Ac trans Ci]
+22.5 +16.8 70 +27 +30 душно 1006.4 782.5 2
00 15.10 СЗ 2 5000 м туман {гроза} 10/4 300 м
[St As op Ci fib]
+19.1 +15.9 82 +21 +21 комфорт 1006.4 783.2 2
03 15.10 ЮВ 1 15 км мгла {туман} 8/3 600 м
[St As trans]
+16.8 +14.6 87 +18 +18 1008.3 784.8
06 15.10 ЮВ 1 10 км дымка {туман} 6/3 450 м
[St Ac cuf]
+15.6 +14.1 91 +16 +16 1009.8 784.7 +13.5 +26.2
09 15.10 ЮВ 1 18 км {туман} 4/0 2000 м
[Ac cuf]
+15.6 +13.2 86 +16 +16 1010.5 784.0
12 15.10 ЮВ 1 18 км мгла {туман} 3/0 2000 м
[Ac As Ci]
+14.3 +12.2 87 +15 +15 1012.1 784.5 +13.0 +26.2
15 15.10 штиль 0 20 км дымка 9/1 800 м
[Cu hum Ci]
+18.8 +14.8 78 +20 +25 1014.1 785.7
18 15.10 СВ 3 20 км 9/4 800 м
[Cu med, cong Ci]
+25.2 +17.3 62 +29 +36 душно 1010.9 784.5
21 15.10 СВ 3 18 км мгла {гроза} 9/5 600 м
[Cb calv Ac trans Ci ing]
+23.4 +15.2 60 +28 +30 душно 1007.9 783.4
00 16.10 СВ 1 5000 м туман 9/4 300 м
[St As op Ci fib]
+20.0 +14.6 71 +23 +23 комфорт 1006.8 783.6 +13.0 +26.0
03 16.10 В 1 15 км мгла 9/4 450 м
[St As op]
+17.6 +14.1 80 +19 +19 1008.7 785.4
06 16.10 СВ 2 18 км мгла 9/5 450 м
[St As op]
+16.4 +14.7 90 +16 +16 1010.5 785.7 +13.0 +26.0
09 16.10 СВ 1 18 км мгла 8/3 450 м
[St As op]
+14.6 +12.8 89 +15 +15 1011.5 785.2
12 16.10 В 1 18 км мгла 8/4 600 м
[Sc As op Ci]
+14.2 +12.7 91 +14 +14 1013.5 785.6 +12.9 +26.0
15 16.10 штиль 0 5000 м дымка 10/10 300 м
[Frnb]
+15.2 +13.7 91 +15 +15 1015.3 786.6
18 16.10 СВ 2 20 км в посл. час морось 10/8 300 м
[Frnb Ci]
+19.0 +14.1 73 +21 +23 комфорт 1013.9 785.5 0.0
21 16.10 СВ 2 20 км 9/3 450 м
[St Ac lent Cs]
+21.6 +13.8 61 +24 +28 комфорт 1010.6 784.1
00 17.10 В 3 18 км мгла 10/4 600 м
[Sc Ac As]
+16.8 +13.3 80 +17 +17 1010.5 784.7 +12.9 +23.6
03 17.10 В 1 18 км {туман} 8/8 600 м
[St]
+15.1 +12.9 87 +16 +16 1012.9 786.7 0.0
06 17.10 ЮВ 1 18 км мгла {туман} 6/6 300 м
[Sc diur, vesp]
+14.4 +11.8 84 +15 +15 1014.0 787.0 0.0
09 17.10 В 1 18 км {туман} 1/1 600 м
[Sc diur, vesp]
+13.2 +12.0 92 +13 +13 1014.3 785.9
12 17.10 ЮВ 1 5000 м дымка {туман} 10/10 450 м
[St]
+12.0 +10.1 88 +12 +12 1016.6 786.6 +10.8 +23.6
15 17.10 штиль 0 3000 м дымка 10/10 300 м
[Frnb]
+13.2 +12.3 94 +13 +13 1019.3 788.3 0.3
18 17.10 СВ 3 3000 м 9/9 300 м
[Frnb]
+17.4 +13.9 80 +17 +19 1018.3 787.8 +10.8 +17.6
21 17.10 СВ 2 5000 м слабая морось {туман} 10/8 450 м
[Frnb As op]
+16.7 +15.7 94 +17 +17 1015.1 785.9 0.0
00 18.10 В 1 3000 м слабая морось {туман} 10/9 300 м
[Frnb As op]
+14.0 +13.4 96 +14 +14 1015.6 786.8 0.1
03 18.10 В 1 3000 м слабая морось {туман} 10/9 450 м
[Frnb As op]
+13.2 +12.3 94 +13 +13 1016.8 787.8 0.5
06 18.10 СВ 1 3000 м слабая морось 10/9 300 м
[Frnb As op]
+13.0 +12.1 94 +13 +13 1017.7 788.0 2
12 18.10 СВ 1 3000 м слабая переохл. морось (гололёд) {туман} 10/9 300 м
[Frnb As op]
+12.0 +11.4 96 +12 +12 1018.2 787.1 1
15 18.10 СВ 2 3000 м дымка 10/10 300 м
[Frnb]
+14.0 +12.5 91 +13 +13 1020.1 788.5 1

 

Местоположение метеостанции Tulancingo (Мексика): широта 20.08 долгота -98.37 высота над уровнем моря 2181 м.

В архиве по умолчанию представлена погода в Tulancingo за последнюю неделю. Архивные данные за месяц целиком и за предыдущие месяцы, начиная с января 2011 года, Вы можете получить, выбрав интересующий диапазон дат из раскрывающегося списка и нажав кнопку "Ввод!".


*Определитесь, кто Вы:
робот инопланетянин человек

Внимание! Время в таблицах - всемирное. Для получения местного времени необходимо прибавить поправку, которая в Tulancingo равна -6 ч.

Смотрите также архив погоды в соседних городах и на ближайших метеорологических станциях:

Погода в Pachuca (Мексика) (40 км)
Погода в Tlaxcala (Мексика) (85 км)
Погода в Tlaxcala Airport (Мексика) (87 км)
Погода в Mexico City (Мексика) (114 км)
Погода в Puebla (Мексика) (117 км)
Погода в Institute of Geography (Мексика) (120 км)
Погода в Tuxpan (Мексика) (140 км)
Погода в Matlapa (Мексика) (145 км)
Погода в Cuernavaca (Мексика) (161 км)
Погода в Toluca (Мексика) (164 км)

Пояснения к столбцам:

Ветер - указаны скорость ветра в м/с - средняя за 10 мин, порывы в срок и между сроками (в фигурных скобках) и направление, откуда дует ветер: С - северный, СВ - северо-восточный, В - восточный, ЮВ - юго-восточный, Ю - южный, ЮЗ - юго-западный, З - западный, СЗ - северо-западный.
Видимость - горизонтальная дальность видимости в метрах или километрах. При видимости от 1 до 10 км при отсутствии осадков обычно наблюдается дымка, при ухудшении видимости до 1 км и менее - туман. В сухую погоду видимость может ухудшаться дымом, пылью или мглою.
Явления - указаны атмосферные явления, наблюдавшиеся в срок или в последний час перед сроком; фигурными скобками обозначены явления, наблюдавшиеся между сроками (за 1-3 часа до срока); квадратными скобками обозначены град или гололедные отложения с указанием их диаметра в мм.
Облачность - указаны через наклонную черту общая и нижняя облачность в баллах и высота нижней границы облаков в метрах; квадратными скобками обозначены формы облаков: Ci - перистые, Cs - перисто-слоистые, Cc - перисто-кучевые, Ac - высококучевые, As - высокослоистые, Sc - слоисто-кучевые, Ns - слоисто-дождевые, Cu - кучевые, Cb - кучево-дождевые. Подробнее классификацию облаков см. в Атласе облаков (PDF).
T - Температура воздуха - температура, измеренная на высоте 2 м над землей.
Td - Температура точки росы - температура, при понижении до которой содержащийся в воздухе водяной пар достигнет насыщения.
f - Относительная влажность воздуха - влажноcть воздуха, измеренная на высоте 2 м над землей.
Te - Эффективная температура - температура, которую ощущает одетый по сезону человек в тени. Характеристика душности погоды. При расчете учитывается влияние влажности воздуха и скорости ветра на теплоощущения человека.
Tes - Эффективная температура на солнце - температура, которую ощущает человек, с поправкой на солнечный нагрев. Характеристика знойности погоды. Зависит от высоты солнца над горизонтом, облачности и скорости ветра. Ночью, в пасмурную погоду, а также при ветре 12 м/с и более поправка равна нулю.
P - Атмосферное давление - приведенное к уровню моря атмосферное давление.
Po - Атмосферное давление - измеренное на уровне метеостанции атмосферное давление.
Tmin - Минимальная температура - минимум температуры воздуха на высоте 2 м над землей.
Tmax - Максимальная температура - максимум температуры воздуха на высоте 2 м над землей.
R - Количество осадков - Количество выпавших осадков за период времени, мм. При наведении курсора мыши на число - период времени, за который выпало указанное количество осадков.
R24 - Количество осадков - Количество выпавших осадков за 24 часа, мм.
S - Снежный покров - Высота снежного покрова, см. При наведении курсора мыши на число - состояние снежного покрова и степень покрытия местности в баллах.